Regional Weather Roundup
Issued by NWS

Home | Current Version | Previous Version | Text Only | Print | Product List | Glossary On
Versions: 1 2 3 4 5 6 7 8 9 10 11 12 13 14 15 16 17 18 19 20 21 22 23 24 25 26 27 28 29 30 31 32 33 34 35 36 37 38 39 40 41 42 43 44 45 46 47 48 49 50
000
ASUS44 KFWD 270301
RWRTX
NORTH TEXAS HOURLY WEATHER ROUNDUP
NATIONAL WEATHER SERVICE FORT WORTH TX
1000 PM CDT THU MAR 26 2015

NOTE: "FAIR" INDICATES FEW OR NO CLOUDS BELOW 12,000 FEET WITH NO
SIGNIFICANT WEATHER AND/OR OBSTRUCTIONS TO VISIBILITY.

TXZ118-119-270400-
DALLAS/FORT WORTH METROPLEX

CITY           SKY/WX    TMP DP  RH WIND       PRES   REMARKS
DFW AIRPORT    CLEAR     54  31  41 N8        30.15R
DALLAS LOVE    CLEAR     55  32  41 N7        30.15R
FTW MEACHAM    CLEAR     55  33  43 NW6       30.16R
DAL-EXECUTIVE  CLEAR     53  33  46 NW6       30.15R
FTW-ALLIANCE   CLEAR     50  35  56 N6        30.16R
FTW-SPINKS     CLEAR     53  34  49 NW8       30.18R
ARLINGTON      CLEAR     55  32  41 NW7       30.16R
ADDISON        CLEAR     55  30  38 NW5       30.15R
MESQUITE       CLEAR     52  34  49 NW6       30.16R
LANCASTER      CLEAR     48  37  64 N5        30.17R
$$

TXZ091>094-102>105-117-120-121-131>134-270400-
NORTH CENTRAL TEXAS

CITY           SKY/WX    TMP DP  RH WIND       PRES   REMARKS
SHRMAN/DENISON CLEAR     52  37  57 CALM      30.17R
GAINESVILLE    CLEAR     50  32  49 CALM      30.17S
BRIDGEPORT     CLEAR     47  41  78 CALM      30.18S
DECATUR        CLEAR     53  29  40 CALM      30.17R
DENTON         CLEAR     49  35  58 NW5       30.16R
MCKINNEY       CLEAR     51  34  52 N3        30.15R
ROCKWALL       CLEAR     52  37  57 CALM      30.14R
TERRELL        CLEAR     57  33  40 N7        30.15R
WAXAHACHIE     CLEAR     51  35  55 NW6       30.17R
CLEBURNE       CLEAR     50  34  53 NW8       30.19R
GRANBURY         N/A     52  36  53 W3        30.19S
$$

TXZ083>090-098>101-113>116-127>130-139>142-154-155-270400-
WESTERN NORTH TEXAS

CITY           SKY/WX    TMP DP  RH WIND       PRES   REMARKS
WICHITA FALLS  CLEAR     50  35  56 MISG      30.14S
WF-KICKAPOO    CLEAR     51  37  59 S6        30.16S
VERNON         CLEAR     49  31  50 S8        30.15S
ABILENE        CLEAR     50  30  46 E6        30.20R
MINERAL WELLS  CLEAR     53  34  48 N5        30.16R
STEPHENVILLE   CLEAR     52  32  46 N5        30.21R
COMANCHE       CLEAR     52  34  51 NW6       30.20R
COLEMAN        CLEAR     51  33  49 N6        30.21R
BRADY          CLEAR     52  30  43 N6        30.20R
$$

TXZ143>147-156>162-174-175-270400-
CENTRAL TEXAS

CITY           SKY/WX    TMP DP  RH WIND       PRES   REMARKS
WACO           CLEAR     51  35  54 NW7       30.16R
WACO-TSTC      CLEAR     52  36  54 N7        30.14S
WACO-MCGREGOR  CLEAR     50  34  53 NW7       30.17R
HILLSBORO      CLEAR     49  36  60 N5        30.17R
CORSICANA      CLEAR     54  37  52 N6        30.15R
MEXIA          CLEAR     53  37  55 NW5       30.14R
HEARNE         CLEAR     51  39  63 N8        30.14R
TEMPLE         CLEAR     50  34  53 NW7       30.15R
KILLEEN        CLEAR     52  36  53 N5        30.17R
KILLEEN-SKYLRK CLEAR     55  30  38 MISG      30.16R
HAMILTON       CLEAR     50  35  57 NW5       30.19R
$$

TXZ095>097-106>112-122>126-135>138-148>153-164>167-270400-
EAST TEXAS

CITY           SKY/WX    TMP DP  RH WIND       PRES   REMARKS
SULPHUR SPRNGS CLEAR     53  34  49 N7        30.16R
GILMER         CLEAR     53  35  49 NW6       30.11R
MINEOLA        CLEAR     52  34  50 CALM      30.14R
TYLER          CLEAR     53  35  50 NW5       30.12R
LONGVIEW       CLEAR     53  38  56 NW8       30.10R
MARSHALL       CLEAR     51  48  89 CALM      30.11R
ATHENS         CLEAR     54  34  47 N6        30.13R
PALESTINE      CLEAR     52  37  56 CALM      30.14R
JACKSONVILLE   CLEAR     55  35  46 NW5       30.12R
NACOGDOCHES    CLEAR     48  45  87 CALM      30.10R
LUFKIN         CLEAR     54  47  77 N3        30.08R
$$

SUPPLEMENTAL OBSERVATIONS (CENTRAL)

CITY           SKY/WX    TMP DP  RH WIND       PRES   REMARKS
$$

SUPPLEMENTAL OBSERVATIONS (WEST)

CITY           SKY/WX    TMP DP  RH WIND       PRES   REMARKS
$$

SUPPLEMENTAL OBSERVATIONS (EAST)

CITY           SKY/WX    TMP DP  RH WIND       PRES   REMARKS
$$

SUPPLEMENTAL OBSERVATIONS ARE A COLLECTION OF AUTOMATED INSTRUMENTS
THAT ARE MAINTAINED BY A VARIETY OF FEDERAL AND STATE AGENCIES.
CERTAIN ELEMENTS...SUCH AS HUMIDITY VALUES AND SUSTAINED WIND
SPEEDS...MAY BE APPROXIMATED.



USA.gov is the U.S. government's official web portal to all federal, state and local government web resources and services.